FW3192 Weather Reports


Display with metric or nautical units.
time (UTC)temp
F
wind
direction
speed
MPH
gust
MPH
rain 1hr
in
rain 24hr
in
rain mn
in
humidity
%
barometer
mb
20260906090050 56 217 6.0 9.0 0.00 0.00 0.00 82 1024.0
20260906084549 57 225 7.0 11.0 0.00 0.00 0.00 82 1024.0
20260906083049 57 237 8.0 12.0 0.00 0.00 0.00 81 1024.0
20260906081529 57 214 5.0 8.0 0.00 0.00 0.00 82 1023.9
20260906080033 57 232 4.0 7.0 0.00 0.00 0.00 81 1023.7
20260906074515 57 235 5.0 10.0 0.00 0.00 0.00 80 1023.6
20260906073021 58 240 6.0 9.0 0.00 0.00 0.00 79 1023.3
20260906071514 58 242 5.0 10.0 0.00 0.00 0.00 80 1023.3
20260906070013 58 224 6.0 10.0 0.00 0.00 0.00 78 1023.1
20260906064512 58 259 4.0 7.0 0.00 0.00 0.00 78 1023.0
20260906063012 59 235 3.0 7.0 0.00 0.00 0.00 79 1023.0
20260906061511 58 263 3.0 6.0 0.00 0.00 0.00 78 1022.9
20260906060012 58 247 5.0 8.0 0.00 0.00 0.00 77 1022.9
20260906054605 58 256 5.0 10.0 0.00 0.00 0.00 79 1022.9
20260906053055 59 215 6.0 11.0 0.00 0.00 0.00 79 1022.7
20260906051535 59 242 7.0 13.0 0.00 0.00 0.00 77 1022.4
20260906050032 59 207 7.0 11.0 0.00 0.00 0.00 77 1022.4
20260906044527 58 234 6.0 10.0 0.00 0.00 0.00 78 1022.4
20260906043030 58 213 7.0 11.0 0.00 0.00 0.00 80 1022.3
20260906041527 59 228 6.0 11.0 0.00 0.00 0.00 78 1022.4
20260906040034 60 256 5.0 10.0 0.00 0.00 0.00 78 1022.4
20260906034527 59 250 7.0 11.0 0.00 0.00 0.00 79 1022.7
20260906033023 59 240 5.0 9.0 0.00 0.00 0.00 80 1022.8
20260906031508 59 265 5.0 10.0 0.00 0.00 0.00 81 1022.9
20260906030007 59 247 8.0 11.0 0.00 0.00 0.00 83 1023.0
20260906024506 58 276 4.0 8.0 0.00 0.00 0.00 80 1023.1
20260906023012 59 210 5.0 10.0 0.00 0.00 0.00 79 1023.3
20260906021515 58 243 5.0 11.0 0.00 0.00 0.00 82 1023.4
20260906020101 58 255 6.0 10.0 0.00 0.00 0.00 83 1023.4
20260906014608 58 236 5.0 10.0 0.00 0.00 0.00 83 1023.6
20260906013056 58 265 6.0 12.0 0.00 0.00 0.00 85 1023.5
20260906011536 58 244 8.0 12.0 0.00 0.00 0.00 87 1023.7
20260906010032 57 232 7.0 11.0 0.00 0.00 0.00 85 1023.8
20260906004518 58 242 5.0 10.0 0.00 0.00 0.00 79 1023.7
20260906003016 57 251 5.0 9.0 0.00 0.00 0.00 82 1023.7
20260906001514 57 283 1.0 6.0 0.00 0.13 0.00 82 1023.7
20260906000014 57 237 5.0 9.0 0.00 0.13 0.00 84 1023.6
20260905234511 56 153 2.0 4.0 0.00 0.13 0.00 87 1023.5
20260905233015 55 113 3.0 5.0 0.00 0.13 0.00 91 1023.4
20260905231506 54 105 3.0 6.0 0.00 0.13 0.00 91 1023.4
20260905230007 54 121 4.0 7.0 0.00 0.13 0.00 91 1023.2
20260905224543 55 216 3.0 7.0 0.00 0.13 0.00 86 1023.0
20260905223041 55 235 5.0 8.0 0.00 0.13 0.00 87 1022.7
20260905221532 55 235 4.0 7.0 0.00 0.13 0.00 87 1022.5
20260905220025 54 242 5.0 8.0 0.00 0.13 0.00 87 1022.3
20260905214525 54 175 3.0 6.0 0.00 0.13 0.00 88 1022.0
20260905213021 53 162 5.0 11.0 0.00 0.13 0.00 89 1022.0
20260905211528 54 186 4.0 7.0 0.00 0.13 0.00 87 1021.6
20260905210016 54 222 5.0 10.0 0.00 0.13 0.00 86 1021.2
20260905204514 54 237 4.0 10.0 0.00 0.13 0.00 86 1021.1
20260905203016 54 234 6.0 11.0 0.00 0.13 0.00 86 1021.0
20260905201600 54 240 7.0 9.0 0.00 0.13 0.00 87 1021.0
20260905200106 54 263 6.0 10.0 0.00 0.13 0.00 86 1020.8
20260905194556 54 251 6.0 10.0 0.00 0.13 0.00 87 1020.7
20260905193109 54 250 6.0 11.0 0.00 0.13 0.00 86 1020.5
20260905191555 54 261 6.0 11.0 0.00 0.13 0.00 87 1020.5
20260905190055 53 280 6.0 10.0 0.00 0.13 0.00 87 1020.4
20260905184554 54 237 6.0 10.0 0.00 0.13 0.00 85 1020.4
20260905183056 54 242 6.0 12.0 0.00 0.13 0.00 86 1020.1
20260905181550 53 268 7.0 15.0 0.00 0.13 0.00 88 1020.1
20260905180035 53 263 6.0 11.0 0.00 0.13 0.00 89 1020.1
20260905174534 53 263 7.0 14.0 0.00 0.13 0.00 89 1020.1
20260905173031 53 232 7.0 10.0 0.00 0.13 0.00 88 1020.2
20260905171535 54 262 7.0 13.0 0.00 0.13 0.00 89 1020.4
20260905170028 54 265 7.0 15.0 0.00 0.13 0.00 88 1020.5
20260905164526 55 235 8.0 15.0 0.00 0.13 0.00 86 1020.7
20260905163025 55 303 10.0 18.0 0.00 0.13 0.00 85 1020.6
20260905161523 55 239 11.0 14.0 0.00 0.13 0.00 84 1020.6
20260905160012 55 249 10.0 15.0 0.00 0.13 0.00 85 1020.6
20260905154503 55 290 8.0 19.0 0.00 0.13 0.00 85 1020.6
20260905153003 55 260 10.0 17.0 0.00 0.13 0.00 84 1020.6
20260905151506 55 251 10.0 18.0 0.00 0.13 0.00 84 1020.6
20260905150113 55 250 13.0 18.0 0.00 0.13 0.00 82 1020.4
20260905144557 56 249 10.0 17.0 0.00 0.13 0.00 83 1020.4
20260905143056 55 248 10.0 16.0 0.00 0.13 0.00 84 1020.3
20260905141554 56 256 10.0 19.0 0.00 0.13 0.00 83 1020.5
20260905140038 55 154 10.0 16.0 0.00 0.13 0.00 83 1020.4
20260905134544 0 0.0 0.0 0.00 0.13 0.00 1020.4
20260905133029 0 0.0 0.0 0.00 0.13 0.00 1020.4
20260905131525 0 0.0 0.0 0.00 0.13 0.00 1020.3
20260905130021 0 0.0 0.0 0.00 0.13 0.00 1020.3
20260905124520 0 0.0 0.0 0.00 0.13 0.00 1019.9
20260905123012 0 0.0 0.0 0.00 0.13 0.00 1020.1
20260905121508 0 0.0 0.0 0.00 0.13 0.00 1019.7
20260905120051 0 0.0 0.0 0.00 0.13 0.00 1019.6
20260905114546 0 0.0 0.0 0.00 0.13 0.00 1019.5
20260905113050 0 0.0 0.0 0.00 0.13 0.00 1019.2
20260905111537 0 0.0 0.0 0.00 0.13 0.13 1019.2
20260905110036 0 0.0 0.0 0.00 0.13 0.13 1019.0
20260905104529 0 0.0 0.0 0.00 0.13 0.13 1019.0
20260905103033 0 0.0 0.0 0.00 0.13 0.13 1018.7
20260905101521 0 0.0 0.0 0.00 0.13 0.13 1018.3
20260905094553 0 0.0 0.0 0.00 0.13 0.13 1017.8
20260905093033 0 0.0 0.0 0.00 0.13 0.13 1017.6
20260905091526 0 0.0 0.0 0.00 0.13 0.13 1017.3